Blythe, CA

12:18 PM PDT on May 24, 2017 (GMT -0700)
Blythe

Weather History for KBLH - February, 2013

Change the Weather History Date:

Tuesday, February 12, 2013

  Actual Average Record
Temperature  
Mean Temperature 50 °F -  
Max Temperature 62 °F 68 °F 84 °F (1971)
Min Temperature 39 °F 44 °F 37 °F (1972)
Degree Days  
Heating Degree Days 14    
Moisture  
Dew Point 15 °F    
Average Humidity 27    
Maximum Humidity 43    
Minimum Humidity 12    
Precipitation  
Precipitation 0.00 in - - ()
Sea Level Pressure  
Sea Level Pressure 30.26 in    
Wind  
Wind Speed 6 mph (NNW)    
Max Wind Speed 14 mph    
Max Gust Speed 20 mph    
Visibility 10 miles    
Events      
Averages and records for this station are not official NWS values.
T = Trace of Precipitation, MM = Missing Value Source: NWS Daily Summary

Daily Weather History Graph

Daily Weather History Graph

Search for Another Location

Airport or City:

Trip Planner

Search our weather history database for the weather conditions in past years. The results will help you decide how hot, cold, wet, or windy it might be!

Date:

Astronomy

Feb. 12, 2013 Rise Set
Actual Time 6:25 AM PST 5:20 PM PST
Civil Twilight 6:00 AM PST 5:46 PM PST
Nautical Twilight 5:30 AM PST 6:15 PM PST
Astronomical Twilight 5:01 AM PST 6:44 PM PST
Moon 7:35 AM PST (2/12) 8:13 PM PST (2/12)
Length of Visible Light 11h 46m
Length of Day
10h 55m
Waxing Crescent, 8% of the Moon is Illuminated
Feb 12
Waxing Crescent
Feb 17
First Quarter
Feb 25
Full
Mar 4
Last Quarter
Mar 11
New

Hourly Weather History & Observations

Time (PST) Temp. Windchill Dew Point Humidity Pressure Visibility Wind Dir Wind Speed Gust Speed Precip Events Conditions
12:52 AM 43.0 °F 40.3 °F 16.0 °F 34% 30.22 in 10.0 mi NW 4.6 mph - N/A   Clear
1:52 AM 39.9 °F 36.7 °F 17.1 °F 40% 30.22 in 10.0 mi NNW 4.6 mph - N/A   Clear
2:52 AM 43.0 °F 41.3 °F 15.1 °F 32% 30.22 in 10.0 mi North 3.5 mph - N/A   Clear
3:52 AM 43.0 °F 40.3 °F 15.1 °F 32% 30.22 in 10.0 mi NW 4.6 mph - N/A   Clear
4:52 AM 39.9 °F - 16.0 °F 38% 30.25 in 10.0 mi Calm Calm - N/A   Clear
5:52 AM 41.0 °F - 15.1 °F 35% 30.27 in 10.0 mi Calm Calm - N/A   Clear
6:52 AM 46.0 °F 40.6 °F 14.0 °F 28% 30.30 in 10.0 mi NNW 11.5 mph - N/A   Clear
7:52 AM 48.0 °F - 16.0 °F 28% 30.32 in 10.0 mi NW 5.8 mph - N/A   Clear
8:52 AM 50.0 °F - 19.0 °F 29% 30.34 in 10.0 mi South 4.6 mph - N/A   Clear
9:44 AM 55.4 °F - 10.4 °F 17% 30.34 in 10.0 mi North 13.8 mph - N/A   Clear
9:52 AM 55.9 °F - 10.0 °F 16% 30.34 in 10.0 mi North 13.8 mph - N/A   Clear
10:52 AM 57.0 °F - 10.9 °F 16% 30.33 in 10.0 mi NNW 12.7 mph 19.6 mph N/A   Clear
11:52 AM 59.0 °F - 8.1 °F 13% 30.30 in 10.0 mi North 10.4 mph - N/A   Clear
12:52 PM 60.1 °F - 9.0 °F 13% 30.27 in 10.0 mi North 9.2 mph - N/A   Clear
1:52 PM 61.0 °F - 9.0 °F 13% 30.25 in 10.0 mi NNE 5.8 mph - N/A   Clear
2:52 PM 62.1 °F - 8.1 °F 12% 30.23 in 10.0 mi North 8.1 mph - N/A   Clear
3:52 PM 61.0 °F - 15.1 °F 17% 30.22 in 10.0 mi Variable 4.6 mph - N/A   Clear
4:52 PM 59.0 °F - 16.0 °F 19% 30.22 in 10.0 mi ESE 5.8 mph - N/A   Clear
5:52 PM 53.1 °F - 19.9 °F 27% 30.23 in 10.0 mi East 5.8 mph - N/A   Clear
6:52 PM 52.0 °F - 19.9 °F 28% 30.24 in 10.0 mi Calm Calm - N/A   Clear
7:52 PM 48.0 °F - 21.9 °F 36% 30.24 in 10.0 mi WNW 3.5 mph - N/A   Clear
8:52 PM 46.9 °F - 21.9 °F 37% 30.25 in 10.0 mi West 4.6 mph - N/A   Clear
9:52 PM 46.0 °F 43.9 °F 19.9 °F 35% 30.24 in 10.0 mi West 4.6 mph - N/A   Clear
10:52 PM 46.9 °F - 18.0 °F 32% 30.24 in 10.0 mi Calm Calm - N/A   Clear
11:52 PM 42.1 °F 37.7 °F 21.0 °F 43% 30.24 in 10.0 mi NNW 6.9 mph - N/A   Clear